Weather History for Munich, Germany

Change the Weather History Date:

Friday, February 15, 2013

  Actual Average Record
Temperature  
Mean Temperature 18 °F -  
Max Temperature 32 °F 40 °F 62 °F (2014)
Min Temperature 5 °F 26 °F 5 °F (2003)
Degree Days  
Heating Degree Days 46    
Moisture  
Dew Point 20 °F    
Average Humidity 97    
Maximum Humidity 100    
Minimum Humidity 85    
Precipitation  
Precipitation 0.00 in - - ()
Sea Level Pressure  
Sea Level Pressure 30.05 in    
Wind  
Wind Speed 2 mph ()    
Max Wind Speed 9 mph    
Max Gust Speed -    
Visibility 1.3 miles    
Events Fog , Snow    
Averages and records for this station are not official NWS values.
T = Trace of Precipitation, MM = Missing Value Source: Averaged Metar Reports

Daily Weather History Graph

Daily Weather History Graph

Search for Another Location

Airport:

Trip Planner

Search our weather history database for the weather conditions in past years. The results will help you decide how hot, cold, wet, or windy it might be!

Date:

Astronomy

Feb. 15, 2013 Rise Set
Actual Time 7:19 AM CET 5:34 PM CET
Civil Twilight 6:47 AM CET 6:06 PM CET
Nautical Twilight 6:11 AM CET 6:43 PM CET
Astronomical Twilight 5:34 AM CET 7:19 PM CET
Moon 9:16 AM CET (2/15) 11:52 PM CET (2/15)
Length of Visible Light 11h 19m
Length of Day
10h 14m
Waxing Crescent, 28% of the Moon is Illuminated
Feb 15
Waxing Crescent
Feb 17
First Quarter
Feb 25
Full
Mar 4
Last Quarter
Mar 11
New

Hourly Weather History & Observations

Time (CET) Temp. Windchill Dew Point Humidity Pressure Visibility Wind Dir Wind Speed Gust Speed Precip Events Conditions
12:20 AM 5.0 °F - 3.2 °F 92% 30.01 in 0.2 mi Variable 1.2 mph - N/A Fog Light Freezing Fog
12:50 AM 5.0 °F - 3.2 °F 92% 30.01 in 0.5 mi Variable 1.2 mph - N/A Fog Light Freezing Fog
1:20 AM 5.0 °F - 3.2 °F 92% 30.01 in 0.5 mi ENE 1.2 mph - N/A Fog Light Freezing Fog
1:50 AM 5.0 °F - 3.2 °F 92% 30.01 in 0.5 mi Calm Calm - N/A Fog Light Freezing Fog
2:20 AM 5.0 °F - 3.2 °F 92% 30.01 in 0.4 mi Variable 1.2 mph - N/A Fog Light Freezing Fog
2:50 AM 5.0 °F - 3.2 °F 92% 29.98 in 0.4 mi Variable 1.2 mph - N/A Fog Light Freezing Fog
3:20 AM 5.0 °F - 3.2 °F 92% 29.98 in 0.2 mi Variable 1.2 mph - N/A Fog Light Freezing Fog
3:50 AM 5.0 °F - 3.2 °F 92% 29.98 in 0.2 mi ESE 1.2 mph - N/A Fog Light Freezing Fog
4:20 AM 5.0 °F - 1.4 °F 85% 29.98 in 0.4 mi Variable 1.2 mph - N/A Fog Light Freezing Fog
4:50 AM 5.0 °F - 3.2 °F 92% 29.98 in 0.7 mi NW 1.2 mph - N/A Fog Patches of Fog
5:20 AM 5.0 °F - 3.2 °F 92% 29.98 in 1.6 mi Variable 1.2 mph - N/A Fog Patches of Fog
5:50 AM 6.8 °F - 5.0 °F 92% 29.98 in 1.6 mi Variable 1.2 mph - N/A   Mostly Cloudy
6:20 AM 8.6 °F - 6.8 °F 92% 29.98 in 2.5 mi East 2.3 mph - N/A   Mostly Cloudy
6:50 AM 10.4 °F - 8.6 °F 92% 29.98 in 2.5 mi Variable 1.2 mph - N/A   Mostly Cloudy
7:20 AM 12.2 °F - 10.4 °F 92% 29.98 in 2.5 mi Variable 1.2 mph - N/A   Mostly Cloudy
7:50 AM 14.0 °F - 12.2 °F 93% 29.98 in 2.8 mi NE 2.3 mph - N/A   Overcast
8:20 AM 14.0 °F - 14.0 °F 100% 29.98 in 2.8 mi NE 2.3 mph - N/A   Overcast
8:50 AM 15.8 °F - 15.8 °F 100% 30.01 in 2.5 mi North 1.2 mph - N/A Snow Light Snow Grains
9:20 AM 17.6 °F - 17.6 °F 100% 30.01 in 1.6 mi East 1.2 mph - N/A Snow Light Snow
9:50 AM 19.4 °F - 19.4 °F 100% 30.01 in 1.4 mi NE 2.3 mph - N/A Snow Light Snow
10:20 AM 21.2 °F - 21.2 °F 100% 30.01 in - ENE 2.3 mph - N/A Snow Light Snow
10:50 AM 23.0 °F - 23.0 °F 100% 30.01 in 2.2 mi Variable 1.2 mph - N/A Snow Light Snow
11:20 AM 24.8 °F - 24.8 °F 100% 30.04 in 1.2 mi Variable 2.3 mph - N/A Snow Light Snow
11:50 AM 26.6 °F - 26.6 °F 100% 30.04 in 1.0 mi NNW 2.3 mph - N/A Snow Snow
12:20 PM 28.4 °F - 28.4 °F 100% 30.04 in 1.6 mi WNW 2.3 mph - N/A Snow Light Snow
12:50 PM 30.2 °F - 30.2 °F 100% 30.04 in 0.8 mi West 2.3 mph - N/A Snow Snow
1:20 PM 30.2 °F - 30.2 °F 100% 30.04 in 0.8 mi Variable 2.3 mph - N/A Snow Snow
1:50 PM 30.2 °F 23.4 °F 30.2 °F 100% 30.04 in 1.2 mi West 6.9 mph - N/A Snow Light Snow
2:20 PM 30.2 °F 24.3 °F 30.2 °F 100% 30.04 in 0.9 mi WSW 5.8 mph - N/A Snow Snow
2:50 PM 32.0 °F 26.4 °F 30.2 °F 93% 30.04 in 1.0 mi West 5.8 mph - N/A Snow Light Snow
3:20 PM 32.0 °F 26.4 °F 30.2 °F 93% 30.04 in 1.2 mi West 5.8 mph - N/A Snow Light Snow
3:50 PM 32.0 °F 25.6 °F 30.2 °F 93% 30.06 in 0.9 mi West 6.9 mph - N/A Snow Light Snow
4:20 PM 32.0 °F 25.6 °F 30.2 °F 93% 30.06 in 0.9 mi WNW 6.9 mph - N/A Snow Light Snow
4:50 PM 30.2 °F 22.6 °F 30.2 °F 100% 30.06 in 0.9 mi WNW 8.1 mph - N/A Snow Snow
5:20 PM 30.2 °F 21.9 °F 30.2 °F 100% 30.06 in 1.6 mi West 9.2 mph - N/A Snow Light Snow
5:50 PM 30.2 °F 23.4 °F 30.2 °F 100% 30.09 in 1.9 mi West 6.9 mph - N/A Snow Light Snow
6:20 PM 30.2 °F 22.6 °F 30.2 °F 100% 30.09 in 1.7 mi West 8.1 mph - N/A Snow Light Snow
6:50 PM 30.2 °F 23.4 °F 30.2 °F 100% 30.12 in 1.4 mi West 6.9 mph - N/A Snow Light Snow
7:20 PM 30.2 °F 25.4 °F 30.2 °F 100% 30.12 in 1.1 mi West 4.6 mph - N/A Snow Snow
7:50 PM 30.2 °F 25.4 °F 30.2 °F 100% 30.12 in 1.2 mi West 4.6 mph - N/A Snow Snow
8:20 PM 30.2 °F 25.4 °F 30.2 °F 100% 30.12 in 1.4 mi West 4.6 mph - N/A Snow Light Snow
8:50 PM 30.2 °F 24.3 °F 30.2 °F 100% 30.15 in 1.6 mi WSW 5.8 mph - N/A Snow Light Snow
9:20 PM 30.2 °F 24.3 °F 30.2 °F 100% 30.15 in 1.7 mi West 5.8 mph - N/A Snow Light Snow
9:50 PM 30.2 °F 24.3 °F 30.2 °F 100% 30.15 in 1.5 mi West 5.8 mph - N/A Snow Light Snow
10:20 PM 30.2 °F 25.4 °F 30.2 °F 100% 30.15 in 1.5 mi West 4.6 mph - N/A Snow Light Snow
10:50 PM 30.2 °F 26.7 °F 30.2 °F 100% 30.15 in 1.1 mi West 3.5 mph - N/A Snow Light Snow
11:20 PM 30.2 °F 24.3 °F 30.2 °F 100% 30.15 in 1.0 mi WSW 5.8 mph - N/A Snow Snow
11:50 PM 30.2 °F 24.3 °F 30.2 °F 100% 30.18 in 1.2 mi West 5.8 mph - N/A Snow Snow